Regional Weather Roundup
Issued by NWS

Home | Current Version | Previous Version | Text Only | Print | Product List | Glossary On
Versions: 1 2 3 4 5 6 7 8 9 10 11 12 13 14 15 16 17 18 19 20 21 22 23 24 25 26 27 28 29 30 31 32 33 34 35 36 37 38 39 40 41 42 43 44 45 46 47 48 49 50
000
ASUS42 KTBW 201810
RWRFL
FLORIDA REGIONAL WEATHER ROUNDUP
NATIONAL WEATHER SERVICE TAMPA BAY RUSKIN FL
200 PM EDT WED AUG 20 2014

NOTE: "FAIR" INDICATES FEW OR NO CLOUDS BELOW 12,000 FEET WITH NO
SIGNIFICANT WEATHER AND/OR OBSTRUCTIONS TO VISIBILITY.


FLZ001>010-012>015-112-114-115-201900-
PANHANDLE FLORIDA

CITY           SKY/WX    TMP DP  RH WIND       PRES   REMARKS
PENSACOLA      MOSUNNY   88  74  63 SE3       30.08F HX  96
PENSACOLA NAS  PTSUNNY   91  77  63 SW12      30.08F HX 104
MILTON NAS     PTSUNNY   89  74  60 VRB6      30.09F HX  98
CRESTVIEW      MOSUNNY   93  75  55 N8        30.09F HX 104
DUKE FIELD     LGT RAIN  91  75  59 W8        30.08F HX 102
VALPARAISO     PTSUNNY   89  76  66 SW8       30.07F HX 100
MARY ESTHER    MOSUNNY   90  73  57 SW10      30.07F HX  98
TRI COUNTY     HVY RAIN  89  76  65 SW7       30.08F HX 100
PANAMA CITY    MOCLDY    85  75  72 NW8G16    30.07F
TYNDALL AFB    MOSUNNY   90  76  64 W13       30.09F HX 101
APALACHICOLA   PTSUNNY   91  75  59 SW8       30.08F HX 101

STATION/POSITION SKY/WX   TEMP    WIND        PRES    WAVE   SWELL
                          AIR SEA DIR/SP/G            HT/PER HT/PER
                          (F)     (DEG/KT/KT) (MB)    (FT/S) (FT/S)
30.1N   87.6W              85 87  270/  6/  6 1019.2F   1/ 4   2/ 7
29.2N   88.2W              86 91  220/  2/  4 1019.5F
28.8N   86.0W              86 88  320/  6/  6 1019.5F   1/ 3   2/ 6
PANAMA CITY BEAC           84 82  250/ 11/ 12 1018.6F
CAPE SAN BLAS    NOT AVBL
TOWER C                    84      CALM  /  7 1019.0F
28.5N   84.5W              85 87  310/  6/  8 1019.5F   1/ 4   2/ 4

$$
FLZ011-016>038-118-127-128-134-139-239-201900-
NORTH FLORIDA

CITY           SKY/WX    TMP DP  RH WIND       PRES   REMARKS
MARIANNA       MOSUNNY   91  76  61 NW3       30.07F HX 103
TALLAHASSEE    PTSUNNY   93  73  52 W9        30.08F HX 102
PERRY          SUNNY     90  72  55 NW6       30.08F HX  96
CROSS CITY       N/A     82  74  76 CALM      30.08F
GAINESVILLE    MOSUNNY   91  73  55 W14G20    30.07F HX  99
MAYPORT NAS    MOSUNNY   92  72  51 W9        30.04F HX  99
JACKSONVILLE   MOSUNNY   92  72  51 W10G18    30.04F HX  99
JAX CRAIG      MOSUNNY   92  71  50 W8        30.05F HX  98
JAX CECIL      MOSUNNY   93  73  52 NW7       30.05F HX 102
FERNANDINA BEA FAIR      91  70  49 W8        30.03F HX  97
ST AUGUSTINE   MOSUNNY   93  73  52 SW9       30.06F HX 102

STATION/POSITION SKY/WX   TEMP    WIND        PRES    WAVE   SWELL
                          AIR SEA DIR/SP/G            HT/PER HT/PER
                          (F)     (DEG/KT/KT) (MB)    (FT/S) (FT/S)
SHELL POINT                89     330/  7/ 11   N/A
KEATON BEACH               85     260/  8/ 10 1018.9F
CEDAR KEY                  87     300/  8/ 10 1019.4S
FERNANDINA                 89 85  270/  7/ 11 1016.9F
30.7N   81.3W                 83                N/A     1/ 8
MAYPORT                    89 85  280/ 10/ 14   N/A
31.4N   80.9W              85 85  230/ 10/ 10 1016.9F   2/ 8   2/ 8
ST AUGUSTINE               91     280/  7/ 10 1018.6F

$$
FLZ040-043>046-052-053-057-058-063-144-201900-
INTERIOR CENTRAL FLORIDA

CITY           SKY/WX    TMP DP  RH WIND       PRES   REMARKS
OCALA            N/A     91  72  52 W8        30.08F HX  98
LEESBURG       PTSUNNY   94  72  48 S5        30.08F HX 102
SANFORD        MOSUNNY   94  70  45 W3        30.07F HX 100
ORLANDO EXEC   SUNNY     94  72  48 W9        30.07F HX 102
ORLANDO INTL   MOSUNNY   92  69  47 VRB3      30.08F HX  97
KISSIMMEE      MOSUNNY   93  72  49 CALM      30.08F HX 100
WINTER HAVEN   MOSUNNY   94  71  47 VRB5      30.09F HX 101
LAKELAND       MOSUNNY   90  70  51 NW8       30.09F HX  95
BARTOW         MOSUNNY   91  70  49 W5        30.09F HX  97
OKEECHOBEE     MOSUNNY   91  75  59 MISG      30.08F HX 102

$$
FLZ041-047-054-059-064-141-147-201900-
EAST CENTRAL FLORIDA

CITY           SKY/WX    TMP DP  RH WIND       PRES   REMARKS
ORMOND BEACH   MOSUNNY   91  72  52 W12       30.07F HX  98
DAYTONA BEACH  MOSUNNY   92  71  50 W7        30.07F HX  98
DELAND         PTCLDY    91  72  52 W7        30.08F HX  98
NEW SMYRNA BEA MOSUNNY   90  70  51 W10       30.07F HX  95
JFK SPACE CTR  MOSUNNY   91 N/A N/A NW7       30.07F
TITUSVILLE     MOSUNNY   90  72  55 CALM      30.08F HX  96
CAPE CANAVERAL SUNNY     90  76  63 NE8       30.07F HX 102
PATRICK AFB    SUNNY     87  79  77 E8        30.08F HX 101
MELBOURNE      MOSUNNY   91  76  61 E10       30.07F HX 103
VERO BEACH     MOSUNNY   89  74  60 E10       30.08F HX  98
FT PIERCE      SUNNY     91  74  57 NE8       30.08S HX 100

STATION/POSITION SKY/WX   TEMP    WIND        PRES    WAVE   SWELL
                          AIR SEA DIR/SP/G            HT/PER HT/PER
                          (F)     (DEG/KT/KT) (MB)    (FT/S) (FT/S)
28.5N   80.2W              82 83  330/  8/ 10 1019.4F
28.9N   78.5W              85 86  240/ 10/ 12 1018.8F   2/ 4   2/ 8
TRIDENT PIER               87 81   70/  8/ 10 1018.2F
28.4N   80.5W                 83                N/A     1/ 8
27.6N   80.2W                 83                N/A     1/ 8

$$
FLZ050-056-061-142-242-148-248-149-249-151-251-155-255-
160-260-201900-
WEST CENTRAL FLORIDA

CITY           SKY/WX    TMP DP  RH WIND       PRES   REMARKS
CRYSTAL RIVER  FAIR      90  73  58 W7        30.09S HX  98
INVERNESS      FAIR      93  59  31 NW3       30.09S
BROOKSVILLE    MOSUNNY   94  67  41 W13       30.09F HX  97
ZEPHYRHILLS    FAIR      91  68  46 NW6       30.10F HX  95
CLEARWATER     MOSUNNY   91  75  59 NW10      30.09F HX 101
TAMPA INTL     MOSUNNY   92  74  55 NW8       30.09F HX 101
TAMPA EXEC     MOSUNNY   93  75  55 N3        30.09F HX 104
MACDILL AFB    MOSUNNY   95  79  60 N8        30.09F HX 112
ST PETERSBURG  PTSUNNY   89  75  63 S8        30.08F HX  99
SARASOTA       MOSUNNY   95  75  52 W14       30.07F HX 107
VENICE           N/A    N/A N/A N/A MISG        N/A

STATION/POSITION SKY/WX   TEMP    WIND        PRES    WAVE   SWELL
                          AIR SEA DIR/SP/G            HT/PER HT/PER
                          (F)     (DEG/KT/KT) (MB)    (FT/S) (FT/S)
CEDAR KEY                  87     300/  8/ 10 1019.4S
28.5N   84.5W              85 87  310/  6/  8 1019.5F   1/ 4   2/ 4
27.3N   84.3W                 90                N/A     1/ 8
CLEARWATER BEACH           87 89  310/  6/  8 1019.0F
MIDDLE TAMPA BAY           87     290/  9/ 10 1019.4F
VENICE                     87 90  300/ 10/ 11 1018.5F

$$
FLZ066-069-070-075>078-162-262-165-265-201900-
SOUTHWEST FLORIDA AND KEYS

CITY           SKY/WX    TMP DP  RH WIND       PRES   REMARKS
PUNTA GORDA    MOSUNNY   93  72  50 NW7       30.10F HX 101
FT MYERS       PTSUNNY   92  70  48 NE8       30.07F HX  97
SOUTHWEST INTL PTSUNNY   93  71  48 NE7       30.07F HX 100
NAPLES         PTSUNNY   90  81  74 NW10      30.07F THUNDER HX 109
MARCO ISLAND   CLOUDY    90  75  62 W12       30.07F HX 100
MARATHON       MOSUNNY   92  79  65 CALM      30.07F HX 108
KEY WEST NAS   TSTM      91  75  59 E13G25    30.08F HX 102
KEY WEST INTL  TSTM      81  71  71 S8        30.08F

STATION/POSITION SKY/WX   TEMP    WIND        PRES    WAVE   SWELL
                          AIR SEA DIR/SP/G            HT/PER HT/PER
                          (F)     (DEG/KT/KT) (MB)    (FT/S) (FT/S)
VENICE                     87 90  300/ 10/ 11 1018.5F
NAPLES                     88     310/ 12/ 14 1019.0F
DRY TORTUGAS               86     100/  5/  5 1018.5F
NW FL BAY                  89     110/  2/  2 1018.7F
SAND KEY                   86      90/  4/  5 1018.5F
SOMBRERO KEY               88      50/  4/  5 1019.2F
LONG KEY                   87 91  110/  3/  4 1019.1F
MOLASSES REEF              85 88  110/  7/  8 1018.5F

$$
FLZ067-068-071>074-168-172>174-201900-
SOUTHEAST FLORIDA

CITY           SKY/WX    TMP DP  RH WIND       PRES   REMARKS
W PALM BEACH   PTSUNNY   93  76  57 E10       30.06F HX 105
FT LAUDER-EXEC PTSUNNY   91  76  61 E9        30.06F HX 103
FT LAUDERDALE  PTSUNNY   90  75  61 E13       30.06F HX 100
POMPANO BEACH  PTSUNNY   92  74  55 E8        30.07F HX 101
PEMBROKE PINES PTSUNNY   91  75  59 E12       30.07F HX 101
OPA LOCKA      PTSUNNY   90  75  61 E14       30.06F HX 100
MIAMI          TSTM      81  73  76 SW15      30.08R
WEST KENDALL   PTSUNNY   90  76  63 E8        30.06F THUNDER HX 101
HOMESTEAD      MOSUNNY   91  73  55 E12       30.06F THUNDER HX 100

STATION/POSITION SKY/WX   TEMP    WIND        PRES    WAVE   SWELL
                          AIR SEA DIR/SP/G            HT/PER HT/PER
                          (F)     (DEG/KT/KT) (MB)    (FT/S) (FT/S)
PORT EVERGLADES            89     100/  4/  8 1018.1
VIRGINIA KEY               86 89  100/  9/ 11   N/A
LAKE WORTH                 86 87  100/  7/  9 1018.1F
FOWEY ROCKS                86 89  100/  8/ 10 1018.8F
SETTLEMENT POINT           87     300/  3/  4 1019.2F

$$



USA.gov is the U.S. government's official web portal to all federal, state and local government web resources and services.